Flag for Canada Weather past 2 weeks in Ottawa, Ontario, Canada

55 °F

Light rain. Fog.

Feels Like: 53 °F
Forecast: 51 / 62 °F
Wind: 9 mph from Southwest

Location: Ottawa Int'L. Ont.

Current Time: Oct 13, 2015 at 8:42:13 AM

Latest Report: Oct 13, 2015 at 8:00 AM

Visibility: 2 mi

Pressure: 29.40 "Hg

Humidity: 88%

Dew point: 52 °F

Location of OttawaLocation

Historic Weather in Ottawa — Graph


Ottawa temperature yesterday

Maximum temperature yesterday: 73 °F (at 2:00 PM)
Minimum temperature yesterday: 54 °F (at 12:00 AM)
Average temperature yesterday: 62 °F

Past Weeks' High & Low Weather Summary

High73 °F (Oct 12, 2:00 PM)100% (Sep 28, 3:50 PM)30.61 "Hg (Sep 28, 3:50 PM)
Low32 °F (Oct 10, 7:00 AM)35% (Oct 2, 2:00 PM)29.39 "Hg (Oct 13, 7:00 AM)
Average52 °F72%30.11 "Hg
* Reported Sep 28 7:00 AM — Oct 13 7:00 AM, Ottawa, Weather by CustomWeather, © 2015

Note: Actual official high and low records may vary slightly from our data, if they occured in-between our weather recording intervals... More about our weather records


Ottawa weather history for previous 24 hours

Time TempWeatherWind HumidityBarometerVisibility
7:00 AM
Tue, Oct 13
57 °FMostly cloudy.7 mph72%29.39 "Hg15 mi
6:00 AM59 °FMostly cloudy.7 mph68%29.41 "Hg15 mi
5:00 AM57 °FMostly cloudy.6 mph67%29.41 "Hg15 mi
4:00 AM57 °FPassing clouds.5 mph63%29.43 "Hg15 mi
3:00 AM57 °FPassing clouds.6 mph63%29.45 "Hg15 mi
2:00 AM59 °FPassing clouds.7 mph59%29.47 "Hg15 mi
1:00 AM59 °FPartly cloudy.8 mph59%29.49 "Hg15 mi
12:00 AM59 °FPartly cloudy.8 mph63%29.52 "Hg15 mi
11:00 PM
Mon, Oct 12
61 °FPassing clouds.10 mph59%29.53 "Hg15 mi
10:00 PM59 °FPassing clouds.8 mph68%29.55 "Hg15 mi
9:00 PM61 °FPassing clouds.5 mph63%29.57 "Hg15 mi
8:00 PM61 °FPartly cloudy.6 mph63%29.57 "Hg15 mi
7:00 PM64 °FPartly sunny.6 mph56%29.58 "Hg15 mi
6:00 PM68 °FPartly sunny.14 mph46%29.58 "Hg15 mi
5:00 PM72 °FScattered clouds.13 mph44%29.59 "Hg15 mi
4:00 PM73 °FScattered clouds.13 mph44%29.59 "Hg15 mi
3:00 PM73 °FScattered clouds.13 mph47%29.60 "Hg15 mi
2:00 PM73 °FScattered clouds.12 mph47%29.62 "Hg15 mi
1:00 PM72 °FPassing clouds.12 mph50%29.65 "Hg15 mi
12:00 PM70 °FPassing clouds.10 mph57%29.67 "Hg15 mi
11:00 AM66 °FPassing clouds.12 mph60%29.68 "Hg15 mi
10:00 AM63 °FPassing clouds.8 mph68%29.69 "Hg15 mi
9:00 AM59 °FPassing clouds.8 mph72%29.69 "Hg15 mi
8:00 AM54 °FPassing clouds.9 mph82%29.69 "Hg15 mi
Weather by CustomWeather, © 2015

See weather overviewHow to use our weather pages